TimeEDT,TemperatureF,Dew PointF,Humidity,Sea Level PressureIn,VisibilityMPH,Wind Direction,Wind SpeedMPH,Gust SpeedMPH,PrecipitationIn,Events,Conditions,WindDirDegrees,DateUTC
12:53 AM,39.0,37.0,93,29.59,3.0,ENE,11.5,20.7,0.06,Rain,Heavy Rain,60,2013-04-12 04:53:00
1:53 AM,39.9,37.9,93,29.59,4.0,NE,4.6,-,0.10,Rain,Light Rain,50,2013-04-12 05:53:00
2:53 AM,39.0,37.0,93,29.55,10.0,ENE,8.1,-,0.02,Rain,Light Rain,60,2013-04-12 06:53:00
3:09 AM,39.2,37.4,93,29.52,10.0,ENE,13.8,-,0.00,,Overcast,60,2013-04-12 07:09:00
3:53 AM,39.0,37.0,93,29.52,8.0,ENE,9.2,-,0.00,Rain,Light Rain,60,2013-04-12 07:53:00
4:13 AM,39.2,37.4,93,29.55,2.5,WNW,8.1,-,0.04,Rain,Rain,300,2013-04-12 08:13:00
4:20 AM,39.2,37.4,93,29.54,4.0,NW,6.9,-,0.05,Rain,Light Rain,320,2013-04-12 08:20:00
4:53 AM,39.0,37.9,96,29.55,6.0,NNW,5.8,-,0.08,Rain,Light Rain,340,2013-04-12 08:53:00
5:14 AM,39.2,37.4,93,29.53,7.0,North,5.8,-,0.01,Rain,Light Rain,360,2013-04-12 09:14:00
5:53 AM,39.0,37.9,96,29.54,10.0,NNE,3.5,-,0.04,Rain,Light Rain,20,2013-04-12 09:53:00
6:53 AM,39.9,37.0,89,29.58,10.0,West,4.6,-,0.00,,Overcast,270,2013-04-12 10:53:00
7:53 AM,39.0,37.0,93,29.60,2.5,West,8.1,-,N/A,,Overcast,270,2013-04-12 11:53:00
8:18 AM,39.2,37.4,93,29.59,5.0,West,9.2,-,N/A,,Overcast,260,2013-04-12 12:18:00
8:53 AM,39.9,37.9,93,29.62,6.0,WSW,10.4,-,N/A,,Overcast,240,2013-04-12 12:53:00
9:53 AM,42.1,39.0,89,29.63,10.0,WSW,12.7,-,N/A,,Overcast,240,2013-04-12 13:53:00
10:12 AM,42.8,39.2,87,29.62,10.0,WSW,16.1,25.3,N/A,,Overcast,250,2013-04-12 14:12:00
10:53 AM,43.0,36.0,76,29.65,10.0,WSW,20.7,27.6,N/A,,Overcast,240,2013-04-12 14:53:00
11:53 AM,42.1,34.0,73,29.68,10.0,WSW,21.9,28.8,N/A,,Overcast,240,2013-04-12 15:53:00
12:53 PM,41.0,33.1,73,29.70,10.0,WSW,20.7,29.9,N/A,,Overcast,240,2013-04-12 16:53:00
1:53 PM,41.0,32.0,70,29.71,10.0,SW,16.1,26.5,N/A,,Overcast,230,2013-04-12 17:53:00
2:05 PM,42.8,32.0,66,29.70,10.0,WSW,19.6,25.3,N/A,,Overcast,240,2013-04-12 18:05:00
2:16 PM,41.0,32.0,70,29.70,10.0,WSW,23.0,27.6,N/A,,Overcast,240,2013-04-12 18:16:00
2:42 PM,41.0,30.2,65,29.71,10.0,WSW,19.6,28.8,N/A,,Overcast,240,2013-04-12 18:42:00
2:53 PM,41.0,30.9,67,29.73,10.0,WSW,18.4,26.5,N/A,,Overcast,240,2013-04-12 18:53:00
3:53 PM,41.0,32.0,70,29.75,10.0,WSW,17.3,25.3,N/A,,Overcast,240,2013-04-12 19:53:00
4:53 PM,42.1,33.1,70,29.76,10.0,WSW,23.0,29.9,N/A,,Overcast,240,2013-04-12 20:53:00
5:53 PM,42.1,33.1,70,29.78,10.0,SW,15.0,24.2,N/A,,Overcast,230,2013-04-12 21:53:00
6:53 PM,42.1,34.0,73,29.79,10.0,SW,13.8,-,N/A,,Overcast,230,2013-04-12 22:53:00
7:53 PM,42.1,33.1,70,29.81,10.0,WSW,17.3,27.6,N/A,,Overcast,240,2013-04-12 23:53:00
8:53 PM,42.1,34.0,73,29.82,10.0,WSW,15.0,-,N/A,,Overcast,240,2013-04-13 00:53:00
9:36 PM,42.8,33.8,70,29.81,10.0,SW,11.5,-,N/A,,Overcast,220,2013-04-13 01:36:00
9:43 PM,42.8,35.6,76,29.82,10.0,SW,10.4,-,N/A,,Overcast,220,2013-04-13 01:43:00
9:53 PM,42.1,35.1,76,29.83,10.0,SW,13.8,-,N/A,,Overcast,230,2013-04-13 01:53:00
10:53 PM,41.0,37.0,86,29.84,10.0,SW,12.7,-,N/A,,Overcast,230,2013-04-13 02:53:00
11:53 PM,41.0,36.0,82,29.84,10.0,SW,11.5,-,N/A,,Overcast,230,2013-04-13 03:53:00